Time,TemperatureF,DewpointF,PressureIn,WindDirection,WindDirectionDegrees,WindSpeedMPH,WindSpeedGustMPH,Humidity,HourlyPrecipIn,Conditions,Clouds,dailyrainin,SoftwareType,DateUTC
2013-05-24 00:01:00,55.0,29.0,29.93,North,0,0.0,0.0,37,0.00,,,0.00,WUHU216HW,2013-05-24 07:01:00,
2013-05-24 00:06:00,55.0,29.0,29.92,NNE,23,0.0,0.0,37,0.00,,,0.00,WUHU216HW,2013-05-24 07:06:00,
2013-05-24 00:11:00,55.0,29.0,29.92,NNE,23,0.0,0.0,37,0.00,,,0.00,WUHU216HW,2013-05-24 07:11:00,
2013-05-24 00:16:00,54.8,29.5,29.92,NNE,23,0.0,0.0,38,0.00,,,0.00,WUHU216HW,2013-05-24 07:16:00,
2013-05-24 00:21:00,54.5,29.2,29.91,NNE,23,0.0,0.0,38,0.00,,,0.00,WUHU216HW,2013-05-24 07:21:00,
2013-05-24 00:26:00,54.5,29.2,29.92,NNE,23,0.0,0.0,38,0.00,,,0.00,WUHU216HW,2013-05-24 07:26:00,
2013-05-24 00:31:00,54.5,29.2,29.92,NNE,23,0.0,0.0,38,0.00,,,0.00,WUHU216HW,2013-05-24 07:31:00,
2013-05-24 00:36:00,54.5,29.2,29.91,NNE,23,0.0,0.0,38,0.00,,,0.00,WUHU216HW,2013-05-24 07:36:00,
2013-05-24 00:41:00,54.5,29.9,29.91,NNE,23,0.0,0.0,39,0.00,,,0.00,WUHU216HW,2013-05-24 07:41:00,
2013-05-24 00:46:00,54.3,31.0,29.91,NNE,23,0.0,0.0,41,0.00,,,0.00,WUHU216HW,2013-05-24 07:46:00,
2013-05-24 00:51:00,54.1,30.3,29.91,NNE,23,0.0,0.0,40,0.00,,,0.00,WUHU216HW,2013-05-24 07:51:00,
2013-05-24 00:56:00,54.1,30.8,29.91,NNE,23,0.0,0.0,41,0.00,,,0.00,WUHU216HW,2013-05-24 07:56:00,
2013-05-24 01:01:00,53.9,30.7,29.91,NNE,23,0.0,0.0,41,0.00,,,0.00,WUHU216HW,2013-05-24 08:01:00,
2013-05-24 01:06:00,53.7,30.5,29.91,NNE,23,0.0,0.0,41,0.00,,,0.00,WUHU216HW,2013-05-24 08:06:00,
2013-05-24 01:11:00,53.4,30.0,29.91,NNE,23,0.0,0.0,40,0.00,,,0.00,WUHU216HW,2013-05-24 08:11:00,
2013-05-24 01:16:00,53.2,30.0,29.91,WSW,248,0.0,0.0,41,0.00,,,0.00,WUHU216HW,2013-05-24 08:16:00,
2013-05-24 01:21:00,53.2,30.0,29.91,SW,225,0.0,0.0,41,0.00,,,0.00,WUHU216HW,2013-05-24 08:21:00,
2013-05-24 01:26:00,53.0,29.9,29.91,SW,225,0.0,0.0,41,0.00,,,0.00,WUHU216HW,2013-05-24 08:26:00,
2013-05-24 01:31:00,52.8,29.7,29.91,SW,225,0.0,0.0,41,0.00,,,0.00,WUHU216HW,2013-05-24 08:31:00,
2013-05-24 01:36:00,52.7,29.5,29.91,SW,225,0.0,0.0,41,0.00,,,0.00,WUHU216HW,2013-05-24 08:36:00,
2013-05-24 01:41:00,52.5,29.9,29.91,SW,225,0.0,0.0,42,0.00,,,0.00,WUHU216HW,2013-05-24 08:41:00,
2013-05-24 01:46:00,52.5,29.9,29.91,SSW,203,0.0,0.0,42,0.00,,,0.00,WUHU216HW,2013-05-24 08:46:00,
2013-05-24 01:51:00,52.3,30.3,29.91,WNW,293,0.0,0.0,43,0.00,,,0.00,WUHU216HW,2013-05-24 08:51:00,
2013-05-24 01:56:00,52.1,30.7,29.91,NNW,338,0.0,0.0,44,0.00,,,0.00,WUHU216HW,2013-05-24 08:56:00,
2013-05-24 02:01:00,52.1,30.7,29.91,NNW,338,0.0,0.0,44,0.00,,,0.00,WUHU216HW,2013-05-24 09:01:00,
2013-05-24 02:06:00,52.1,30.2,29.91,WNW,293,0.0,0.0,43,0.00,,,0.00,WUHU216HW,2013-05-24 09:06:00,
2013-05-24 02:11:00,51.9,30.0,29.91,WNW,293,0.0,0.0,43,0.00,,,0.00,WUHU216HW,2013-05-24 09:11:00,
2013-05-24 02:16:00,51.8,29.8,29.91,WNW,293,0.0,0.0,43,0.00,,,0.00,WUHU216HW,2013-05-24 09:16:00,
2013-05-24 02:21:00,51.4,29.5,29.90,WNW,293,0.0,0.0,43,0.00,,,0.00,WUHU216HW,2013-05-24 09:21:00,
2013-05-24 02:26:00,51.4,30.1,29.91,WNW,293,0.0,0.0,44,0.00,,,0.00,WUHU216HW,2013-05-24 09:26:00,
2013-05-24 02:31:00,51.4,30.1,29.91,WNW,293,0.0,0.0,44,0.00,,,0.00,WUHU216HW,2013-05-24 09:31:00,
2013-05-24 02:36:00,51.2,29.9,29.91,WNW,293,0.0,0.0,44,0.00,,,0.00,WUHU216HW,2013-05-24 09:36:00,
2013-05-24 02:41:00,51.0,29.8,29.91,WNW,293,0.0,0.0,44,0.00,,,0.00,WUHU216HW,2013-05-24 09:41:00,
2013-05-24 02:46:00,50.9,29.6,29.91,WNW,293,0.0,0.0,44,0.00,,,0.00,WUHU216HW,2013-05-24 09:46:00,
2013-05-24 02:51:00,50.9,29.6,29.91,WNW,293,0.0,0.0,44,0.00,,,0.00,WUHU216HW,2013-05-24 09:51:00,
2013-05-24 02:56:00,50.7,30.0,29.91,WNW,293,0.0,0.0,45,0.00,,,0.00,WUHU216HW,2013-05-24 09:56:00,
2013-05-24 03:01:00,50.7,30.0,29.91,WNW,293,0.0,0.0,45,0.00,,,0.00,WUHU216HW,2013-05-24 10:01:00,
2013-05-24 03:07:00,50.3,29.7,29.91,WNW,293,0.0,0.0,45,0.00,,,0.00,WUHU216HW,2013-05-24 10:07:00,
2013-05-24 03:12:00,50.3,30.8,29.91,WNW,293,0.0,0.0,47,0.00,,,0.00,WUHU216HW,2013-05-24 10:12:00,
2013-05-24 03:17:00,50.1,31.2,29.91,WNW,293,0.0,0.0,48,0.00,,,0.00,WUHU216HW,2013-05-24 10:17:00,
2013-05-24 03:22:00,50.1,30.6,29.92,WNW,293,0.0,0.0,47,0.00,,,0.00,WUHU216HW,2013-05-24 10:22:00,
2013-05-24 03:27:00,50.1,31.2,29.91,WNW,293,0.0,0.0,48,0.00,,,0.00,WUHU216HW,2013-05-24 10:27:00,
2013-05-24 03:32:00,50.1,31.2,29.92,WNW,293,0.0,0.0,48,0.00,,,0.00,WUHU216HW,2013-05-24 10:32:00,
2013-05-24 03:37:00,49.8,30.8,29.92,WNW,293,0.0,0.0,48,0.00,,,0.00,WUHU216HW,2013-05-24 10:37:00,
2013-05-24 03:42:00,49.6,30.7,29.91,WNW,293,0.0,0.0,48,0.00,,,0.00,WUHU216HW,2013-05-24 10:42:00,
2013-05-24 03:47:00,49.4,30.5,29.92,WNW,293,0.0,0.0,48,0.00,,,0.00,WUHU216HW,2013-05-24 10:47:00,
2013-05-24 03:52:00,49.4,30.5,29.92,WNW,293,0.0,0.0,48,0.00,,,0.00,WUHU216HW,2013-05-24 10:52:00,
2013-05-24 03:57:00,49.1,30.1,29.91,WNW,293,0.0,0.0,48,0.00,,,0.00,WUHU216HW,2013-05-24 10:57:00,
2013-05-24 04:02:00,48.9,30.0,29.92,WNW,293,0.0,0.0,48,0.00,,,0.00,WUHU216HW,2013-05-24 11:02:00,
2013-05-24 04:07:00,48.9,30.5,29.92,WNW,293,0.0,0.0,49,0.00,,,0.00,WUHU216HW,2013-05-24 11:07:00,
2013-05-24 04:12:00,48.7,30.9,29.92,WNW,293,0.0,0.0,50,0.00,,,0.00,WUHU216HW,2013-05-24 11:12:00,
2013-05-24 04:17:00,48.7,30.9,29.92,West,270,0.0,0.0,50,0.00,,,0.00,WUHU216HW,2013-05-24 11:17:00,
2013-05-24 04:22:00,48.5,30.7,29.91,SW,225,0.0,0.0,50,0.00,,,0.00,WUHU216HW,2013-05-24 11:22:00,
2013-05-24 04:27:00,48.5,30.7,29.91,SW,225,0.0,0.0,50,0.00,,,0.00,WUHU216HW,2013-05-24 11:27:00,
2013-05-24 04:32:00,48.9,31.5,29.91,SW,225,0.0,0.0,51,0.00,,,0.00,WUHU216HW,2013-05-24 11:32:00,
2013-05-24 04:37:00,48.9,31.5,29.91,SW,225,0.0,0.0,51,0.00,,,0.00,WUHU216HW,2013-05-24 11:37:00,
2013-05-24 04:42:00,48.9,31.1,29.91,SW,225,0.0,0.0,50,0.00,,,0.00,WUHU216HW,2013-05-24 11:42:00,
2013-05-24 04:47:00,49.1,31.7,29.91,SW,225,0.0,0.0,51,0.00,,,0.00,WUHU216HW,2013-05-24 11:47:00,
2013-05-24 04:52:00,48.9,31.1,29.91,SW,225,0.0,0.0,50,0.00,,,0.00,WUHU216HW,2013-05-24 11:52:00,
2013-05-24 04:57:00,49.1,31.2,29.91,SW,225,0.0,0.0,50,0.00,,,0.00,WUHU216HW,2013-05-24 11:57:00,
2013-05-24 05:02:00,49.1,31.2,29.91,SW,225,0.0,0.0,50,0.00,,,0.00,WUHU216HW,2013-05-24 12:02:00,
2013-05-24 05:07:00,49.1,31.2,29.91,SW,225,0.0,0.0,50,0.00,,,0.00,WUHU216HW,2013-05-24 12:07:00,
2013-05-24 05:12:00,49.1,31.2,29.91,SW,225,0.0,0.0,50,0.00,,,0.00,WUHU216HW,2013-05-24 12:12:00,
2013-05-24 05:17:00,48.9,31.1,29.91,SW,225,0.0,0.0,50,0.00,,,0.00,WUHU216HW,2013-05-24 12:17:00,
2013-05-24 05:22:00,49.1,31.2,29.91,SW,225,0.0,0.0,50,0.00,,,0.00,WUHU216HW,2013-05-24 12:22:00,
2013-05-24 05:27:00,49.1,31.2,29.91,SW,225,0.0,0.0,50,0.00,,,0.00,WUHU216HW,2013-05-24 12:27:00,
2013-05-24 05:32:00,49.1,31.2,29.91,SW,225,0.0,0.0,50,0.00,,,0.00,WUHU216HW,2013-05-24 12:32:00,
2013-05-24 05:37:00,49.1,31.2,29.91,SW,225,0.0,0.0,50,0.00,,,0.00,WUHU216HW,2013-05-24 12:37:00,
2013-05-24 05:42:00,49.1,31.2,29.91,SW,225,0.0,0.0,50,0.00,,,0.00,WUHU216HW,2013-05-24 12:42:00,
2013-05-24 05:47:00,48.9,31.1,29.91,SW,225,0.0,0.0,50,0.00,,,0.00,WUHU216HW,2013-05-24 12:47:00,
2013-05-24 05:52:00,48.9,31.5,29.91,SW,225,0.0,0.0,51,0.00,,,0.00,WUHU216HW,2013-05-24 12:52:00,
2013-05-24 05:57:00,48.9,31.5,29.91,SW,225,0.0,0.0,51,0.00,,,0.00,WUHU216HW,2013-05-24 12:57:00,
2013-05-24 06:02:00,48.9,31.5,29.91,SW,225,0.0,0.0,51,0.00,,,0.00,WUHU216HW,2013-05-24 13:02:00,
2013-05-24 06:07:00,48.7,31.3,29.91,SW,225,0.0,0.0,51,0.00,,,0.00,WUHU216HW,2013-05-24 13:07:00,
2013-05-24 06:12:00,48.7,31.8,29.91,SW,225,0.0,0.0,52,0.00,,,0.00,WUHU216HW,2013-05-24 13:12:00,
2013-05-24 06:17:00,48.7,31.8,29.92,SW,225,0.0,0.0,52,0.00,,,0.00,WUHU216HW,2013-05-24 13:17:00,
2013-05-24 06:22:00,48.9,32.0,29.92,SW,225,0.0,0.0,52,0.00,,,0.00,WUHU216HW,2013-05-24 13:22:00,
2013-05-24 06:27:00,49.1,32.6,29.92,SW,225,0.0,0.0,53,0.00,,,0.00,WUHU216HW,2013-05-24 13:27:00,
2013-05-24 06:32:00,49.4,32.9,29.92,SW,225,0.0,0.0,53,0.00,,,0.00,WUHU216HW,2013-05-24 13:32:00,
2013-05-24 06:37:00,49.6,33.1,29.91,NNE,23,0.0,0.0,53,0.00,,,0.00,WUHU216HW,2013-05-24 13:37:00,
2013-05-24 06:42:00,50.1,34.1,29.92,North,0,0.0,0.0,54,0.00,,,0.00,WUHU216HW,2013-05-24 13:42:00,
2013-05-24 06:47:00,50.7,35.0,29.92,NNW,338,0.0,0.0,55,0.00,,,0.00,WUHU216HW,2013-05-24 13:47:00,
2013-05-24 06:52:00,50.9,34.7,29.93,NNW,338,0.0,0.0,54,0.00,,,0.00,WUHU216HW,2013-05-24 13:52:00,
2013-05-24 06:57:00,51.4,35.2,29.93,North,0,0.0,0.0,54,0.00,,,0.00,WUHU216HW,2013-05-24 13:57:00,
2013-05-24 07:02:00,51.9,35.7,29.93,North,0,0.0,0.0,54,0.00,,,0.00,WUHU216HW,2013-05-24 14:02:00,
2013-05-24 07:07:00,52.1,35.9,29.93,North,0,0.0,0.0,54,0.00,,,0.00,WUHU216HW,2013-05-24 14:07:00,
2013-05-24 07:12:00,53.0,36.3,29.93,North,0,0.0,0.0,53,0.00,,,0.00,WUHU216HW,2013-05-24 14:12:00,
2013-05-24 07:17:00,53.6,36.8,29.94,NNW,338,0.0,0.0,53,0.00,,,0.00,WUHU216HW,2013-05-24 14:17:00,
2013-05-24 07:22:00,54.3,37.9,29.94,NNW,338,0.0,0.0,54,0.00,,,0.00,WUHU216HW,2013-05-24 14:22:00,
2013-05-24 07:27:00,55.5,38.6,29.94,NNW,338,0.0,0.0,53,0.00,,,0.00,WUHU216HW,2013-05-24 14:27:00,
2013-05-24 07:32:00,56.3,39.3,29.95,NNW,338,0.0,0.0,53,0.00,,,0.00,WUHU216HW,2013-05-24 14:32:00,
2013-05-24 07:37:00,57.2,39.7,29.94,NNW,338,0.0,0.0,52,0.00,,,0.00,WUHU216HW,2013-05-24 14:37:00,
2013-05-24 07:42:00,58.4,40.4,29.95,NNW,338,0.0,0.0,51,0.00,,,0.00,WUHU216HW,2013-05-24 14:42:00,
2013-05-24 07:47:00,59.1,40.6,29.95,NNW,338,0.0,0.0,50,0.00,,,0.00,WUHU216HW,2013-05-24 14:47:00,
2013-05-24 07:52:00,60.2,41.0,29.95,North,0,0.0,0.0,49,0.00,,,0.00,WUHU216HW,2013-05-24 14:52:00,
2013-05-24 07:57:00,60.9,41.0,29.96,North,0,0.0,0.0,48,0.00,,,0.00,WUHU216HW,2013-05-24 14:57:00,
2013-05-24 08:02:00,61.5,41.5,29.96,North,0,1.3,2.2,48,0.00,,,0.00,WUHU216HW,2013-05-24 15:02:00,
2013-05-24 08:07:00,62.0,41.4,29.96,North,0,0.0,2.2,47,0.00,,,0.00,WUHU216HW,2013-05-24 15:07:00,
2013-05-24 08:12:00,62.0,41.4,29.96,ENE,68,0.0,1.7,47,0.00,,,0.00,WUHU216HW,2013-05-24 15:12:00,
2013-05-24 08:17:00,61.8,41.3,29.96,North,0,0.0,0.6,47,0.00,,,0.00,WUHU216HW,2013-05-24 15:17:00,
2013-05-24 08:22:00,61.5,40.4,29.95,NNW,338,0.0,0.0,46,0.00,,,0.00,WUHU216HW,2013-05-24 15:22:00,
2013-05-24 08:27:00,61.3,40.8,29.96,NW,315,1.7,1.7,47,0.00,,,0.00,WUHU216HW,2013-05-24 15:27:00,
2013-05-24 08:32:00,61.1,40.6,29.96,NNE,23,0.0,1.7,47,0.00,,,0.00,WUHU216HW,2013-05-24 15:32:00,
2013-05-24 08:37:00,61.5,41.0,29.96,North,0,0.8,1.7,47,0.00,,,0.00,WUHU216HW,2013-05-24 15:37:00,
2013-05-24 08:42:00,61.5,40.4,29.96,North,0,0.0,0.8,46,0.00,,,0.00,WUHU216HW,2013-05-24 15:42:00,
2013-05-24 08:47:00,61.1,40.1,29.96,WSW,248,0.0,0.8,46,0.00,,,0.00,WUHU216HW,2013-05-24 15:47:00,
2013-05-24 08:52:00,61.3,40.2,29.96,WSW,248,0.0,1.3,46,0.00,,,0.00,WUHU216HW,2013-05-24 15:52:00,
2013-05-24 08:57:00,61.3,40.8,29.96,WSW,248,0.0,1.3,47,0.00,,,0.00,WUHU216HW,2013-05-24 15:57:00,
2013-05-24 09:02:00,61.7,41.1,29.96,WSW,248,0.0,2.6,47,0.00,,,0.00,WUHU216HW,2013-05-24 16:02:00,
2013-05-24 09:08:00,62.0,40.9,29.96,WSW,248,4.2,6.2,46,0.00,,,0.00,WUHU216HW,2013-05-24 16:08:00,
2013-05-24 09:13:00,62.2,41.0,29.96,WSW,248,0.0,6.2,46,0.00,,,0.00,WUHU216HW,2013-05-24 16:13:00,
2013-05-24 09:18:00,62.4,41.2,29.96,WSW,248,0.8,4.2,46,0.00,,,0.00,WUHU216HW,2013-05-24 16:18:00,
2013-05-24 09:23:00,62.9,41.7,29.96,WSW,248,3.8,3.8,46,0.00,,,0.00,WUHU216HW,2013-05-24 16:23:00,
2013-05-24 09:28:00,63.1,41.3,29.96,WSW,248,2.9,3.8,45,0.00,,,0.00,WUHU216HW,2013-05-24 16:28:00,
2013-05-24 09:33:00,63.3,41.4,29.96,NW,315,0.0,7.8,45,0.00,,,0.00,WUHU216HW,2013-05-24 16:33:00,
2013-05-24 09:38:00,63.8,41.3,29.96,WSW,248,0.0,7.8,44,0.00,,,0.00,WUHU216HW,2013-05-24 16:38:00,
2013-05-24 09:43:00,64.4,41.8,29.96,WSW,248,0.0,0.0,44,0.00,,,0.00,WUHU216HW,2013-05-24 16:43:00,
2013-05-24 09:48:00,64.7,42.1,29.96,WSW,248,0.0,0.8,44,0.00,,,0.00,WUHU216HW,2013-05-24 16:48:00,
2013-05-24 09:53:00,65.3,42.1,29.96,WSW,248,0.0,0.8,43,0.00,,,0.00,WUHU216HW,2013-05-24 16:53:00,
2013-05-24 09:58:00,66.3,43.1,29.95,NW,315,0.0,1.7,43,0.00,,,0.00,WUHU216HW,2013-05-24 16:58:00,
2013-05-24 10:03:00,66.9,43.0,29.94,WSW,248,0.0,1.7,42,0.00,,,0.00,WUHU216HW,2013-05-24 17:03:00,
2013-05-24 10:08:00,67.6,42.4,29.95,NW,315,4.4,4.4,40,0.00,,,0.00,WUHU216HW,2013-05-24 17:08:00,
2013-05-24 10:13:00,68.5,42.5,29.95,NNW,338,2.6,5.5,39,0.00,,,0.00,WUHU216HW,2013-05-24 17:13:00,
2013-05-24 10:18:00,69.0,43.0,29.94,North,0,1.5,5.5,39,0.00,,,0.00,WUHU216HW,2013-05-24 17:18:00,
2013-05-24 10:23:00,69.4,41.8,29.94,NE,45,0.0,2.6,37,0.00,,,0.00,WUHU216HW,2013-05-24 17:23:00,
2013-05-24 10:28:00,70.7,41.5,29.94,SSW,203,2.0,2.0,35,0.00,,,0.00,WUHU216HW,2013-05-24 17:28:00,
2013-05-24 10:33:00,71.2,41.2,29.94,West,270,1.3,2.0,34,0.00,,,0.00,WUHU216HW,2013-05-24 17:33:00,
2013-05-24 10:38:00,71.7,41.7,29.93,West,270,1.3,2.0,34,0.00,,,0.00,WUHU216HW,2013-05-24 17:38:00,
2013-05-24 10:43:00,72.8,41.9,29.94,SSW,203,0.0,1.3,33,0.00,,,0.00,WUHU216HW,2013-05-24 17:43:00,
2013-05-24 10:48:00,73.2,42.2,29.94,NNW,338,0.8,0.8,33,0.00,,,0.00,WUHU216HW,2013-05-24 17:48:00,
2013-05-24 10:53:00,73.5,41.7,29.94,NNW,338,2.4,4.4,32,0.00,,,0.00,WUHU216HW,2013-05-24 17:53:00,
2013-05-24 10:58:00,73.7,41.1,29.94,NNW,338,4.9,5.1,31,0.00,,,0.00,WUHU216HW,2013-05-24 17:58:00,
2013-05-24 11:03:00,73.7,41.1,29.94,East,90,2.4,5.1,31,0.00,,,0.00,WUHU216HW,2013-05-24 18:03:00,
2013-05-24 11:08:00,73.5,41.0,29.94,East,90,0.0,4.9,31,0.00,,,0.00,WUHU216HW,2013-05-24 18:08:00,
2013-05-24 11:13:00,74.1,40.7,29.94,NNW,338,0.0,0.0,30,0.00,,,0.00,WUHU216HW,2013-05-24 18:13:00,
2013-05-24 11:18:00,74.1,40.7,29.94,NNW,338,5.3,5.3,30,0.00,,,0.00,WUHU216HW,2013-05-24 18:18:00,
2013-05-24 11:23:00,74.3,39.8,29.94,NNW,338,4.2,5.3,29,0.00,,,0.00,WUHU216HW,2013-05-24 18:23:00,
2013-05-24 11:28:00,74.6,39.1,29.93,North,0,2.0,4.2,28,0.00,,,0.00,WUHU216HW,2013-05-24 18:28:00,
2013-05-24 11:33:00,74.6,39.1,29.93,NW,315,0.0,2.0,28,0.00,,,0.00,WUHU216HW,2013-05-24 18:33:00,
2013-05-24 11:38:00,75.2,39.6,29.92,East,90,0.0,2.0,28,0.00,,,0.00,WUHU216HW,2013-05-24 18:38:00,
2013-05-24 11:43:00,75.7,40.1,29.92,North,0,0.0,2.4,28,0.00,,,0.00,WUHU216HW,2013-05-24 18:43:00,
2013-05-24 11:48:00,76.2,41.6,29.92,NNW,338,6.0,6.0,29,0.00,,,0.00,WUHU216HW,2013-05-24 18:48:00,
2013-05-24 11:53:00,76.4,39.7,29.92,North,0,5.3,6.0,27,0.00,,,0.00,WUHU216HW,2013-05-24 18:53:00,
2013-05-24 11:58:00,76.6,38.8,29.92,NNE,23,1.7,6.2,26,0.00,,,0.00,WUHU216HW,2013-05-24 18:58:00,
2013-05-24 12:03:00,76.6,38.8,29.92,North,0,0.0,6.2,26,0.00,,,0.00,WUHU216HW,2013-05-24 19:03:00,
2013-05-24 12:08:00,77.1,38.8,29.92,NW,315,6.9,6.9,26,0.00,,,0.00,WUHU216HW,2013-05-24 19:08:00,
2013-05-24 12:13:00,77.7,39.7,29.92,NW,315,0.0,6.9,26,0.00,,,0.00,WUHU216HW,2013-05-24 19:13:00,
2013-05-24 12:18:00,77.9,38.8,29.92,NNW,338,2.6,6.9,25,0.00,,,0.00,WUHU216HW,2013-05-24 19:18:00,
2013-05-24 12:23:00,78.2,38.0,29.92,SSE,158,3.8,3.8,24,0.00,,,0.00,WUHU216HW,2013-05-24 19:23:00,
2013-05-24 12:28:00,78.6,38.3,29.92,NNW,338,5.8,5.8,24,0.00,,,0.00,WUHU216HW,2013-05-24 19:28:00,
2013-05-24 12:33:00,78.8,37.4,29.92,NNE,23,0.0,5.8,23,0.00,,,0.00,WUHU216HW,2013-05-24 19:33:00,
2013-05-24 12:38:00,79.1,37.7,29.91,NNW,338,3.8,5.8,23,0.00,,,0.00,WUHU216HW,2013-05-24 19:38:00,
2013-05-24 12:43:00,79.3,37.9,29.92,ESE,113,0.0,3.8,23,0.00,,,0.00,WUHU216HW,2013-05-24 19:43:00,
2013-05-24 12:48:00,80.0,37.5,29.91,SSE,158,1.1,4.4,22,0.00,,,0.00,WUHU216HW,2013-05-24 19:48:00,
2013-05-24 12:53:00,80.7,37.1,29.91,ENE,68,0.0,4.4,21,0.00,,,0.00,WUHU216HW,2013-05-24 19:53:00,
2013-05-24 12:58:00,81.3,38.6,29.91,South,180,0.0,1.1,22,0.00,,,0.00,WUHU216HW,2013-05-24 19:58:00,
2013-05-24 13:03:00,81.5,37.7,29.91,NNW,338,4.2,4.2,21,0.00,,,0.00,WUHU216HW,2013-05-24 20:03:00,
2013-05-24 13:08:00,81.5,35.2,29.91,NNE,23,0.0,4.6,19,0.00,,,0.00,WUHU216HW,2013-05-24 20:08:00,
2013-05-24 13:13:00,81.6,35.3,29.91,SE,135,2.0,4.6,19,0.00,,,0.00,WUHU216HW,2013-05-24 20:13:00,
2013-05-24 13:18:00,82.0,38.1,29.91,NE,45,0.0,2.0,21,0.00,,,0.00,WUHU216HW,2013-05-24 20:18:00,
2013-05-24 13:23:00,82.9,37.8,29.91,NW,315,0.0,0.0,20,0.00,,,0.00,WUHU216HW,2013-05-24 20:23:00,
2013-05-24 13:28:00,83.3,36.7,29.91,NW,315,0.0,0.8,19,0.00,,,0.00,WUHU216HW,2013-05-24 20:28:00,
2013-05-24 13:33:00,83.6,37.0,29.91,WSW,248,0.0,1.3,19,0.00,,,0.00,WUHU216HW,2013-05-24 20:33:00,
2013-05-24 13:38:00,83.6,37.0,29.90,SSW,203,1.5,5.3,19,0.00,,,0.00,WUHU216HW,2013-05-24 20:38:00,
2013-05-24 13:43:00,84.3,37.5,29.90,SW,225,0.8,5.3,19,0.00,,,0.00,WUHU216HW,2013-05-24 20:43:00,
2013-05-24 13:48:00,84.5,37.7,29.90,NW,315,1.3,3.3,19,0.00,,,0.00,WUHU216HW,2013-05-24 20:48:00,
2013-05-24 13:53:00,85.1,38.2,29.90,North,0,2.4,2.9,19,0.00,,,0.00,WUHU216HW,2013-05-24 20:53:00,
2013-05-24 13:58:00,85.6,38.6,29.90,NE,45,2.0,2.9,19,0.00,,,0.00,WUHU216HW,2013-05-24 20:58:00,
2013-05-24 14:03:00,86.1,39.0,29.90,NNW,338,2.6,2.6,19,0.00,,,0.00,WUHU216HW,2013-05-24 21:03:00,
2013-05-24 14:08:00,86.3,39.2,29.90,SE,135,0.8,5.8,19,0.00,,,0.00,WUHU216HW,2013-05-24 21:08:00,
2013-05-24 14:13:00,86.5,39.3,29.90,North,0,0.0,5.8,19,0.00,,,0.00,WUHU216HW,2013-05-24 21:13:00,
2013-05-24 14:18:00,87.0,39.8,29.90,NNW,338,4.4,4.4,19,0.00,,,0.00,WUHU216HW,2013-05-24 21:18:00,
2013-05-24 14:23:00,86.7,39.5,29.89,North,0,1.3,5.8,19,0.00,,,0.00,WUHU216HW,2013-05-24 21:23:00,
2013-05-24 14:28:00,86.7,39.5,29.89,North,0,1.7,5.8,19,0.00,,,0.00,WUHU216HW,2013-05-24 21:28:00,
2013-05-24 14:33:00,86.9,39.7,29.89,East,90,0.0,2.9,19,0.00,,,0.00,WUHU216HW,2013-05-24 21:33:00,
2013-05-24 14:38:00,87.2,39.9,29.89,North,0,4.9,5.5,19,0.00,,,0.00,WUHU216HW,2013-05-24 21:38:00,
2013-05-24 14:43:00,87.2,39.9,29.89,NNW,338,0.8,5.5,19,0.00,,,0.00,WUHU216HW,2013-05-24 21:43:00,
2013-05-24 14:48:00,87.2,39.9,29.89,SSW,203,1.7,4.9,19,0.00,,,0.00,WUHU216HW,2013-05-24 21:48:00,
2013-05-24 14:53:00,87.6,40.2,29.88,NNW,338,2.4,2.4,19,0.00,,,0.00,WUHU216HW,2013-05-24 21:53:00,
2013-05-24 14:58:00,87.9,40.5,29.88,NNE,23,0.0,3.1,19,0.00,,,0.00,WUHU216HW,2013-05-24 21:58:00,
2013-05-24 15:03:00,87.9,40.5,29.88,NNW,338,2.6,5.8,19,0.00,,,0.00,WUHU216HW,2013-05-24 22:03:00,
2013-05-24 15:08:00,88.5,41.0,29.88,WNW,293,0.0,6.9,19,0.00,,,0.00,WUHU216HW,2013-05-24 22:08:00,
2013-05-24 15:13:00,88.7,41.1,29.88,North,0,9.1,9.1,19,0.00,,,0.00,WUHU216HW,2013-05-24 22:13:00,
2013-05-24 15:19:00,88.7,41.1,29.88,NNW,338,0.0,9.1,19,0.00,,,0.00,WUHU216HW,2013-05-24 22:19:00,
2013-05-24 15:24:00,88.7,41.1,29.88,ESE,113,0.0,0.8,19,0.00,,,0.00,WUHU216HW,2013-05-24 22:24:00,
2013-05-24 15:29:00,89.4,41.7,29.88,North,0,6.2,6.2,19,0.00,,,0.00,WUHU216HW,2013-05-24 22:29:00,
2013-05-24 15:34:00,89.7,42.0,29.88,NNW,338,5.3,6.2,19,0.00,,,0.00,WUHU216HW,2013-05-24 22:34:00,
2013-05-24 15:39:00,89.9,42.1,29.88,SSE,158,5.8,5.8,19,0.00,,,0.00,WUHU216HW,2013-05-24 22:39:00,
2013-05-24 15:44:00,90.1,42.3,29.87,SE,135,4.9,5.8,19,0.00,,,0.00,WUHU216HW,2013-05-24 22:44:00,
2013-05-24 15:49:00,90.6,42.7,29.87,North,0,2.0,5.8,19,0.00,,,0.00,WUHU216HW,2013-05-24 22:49:00,
2013-05-24 15:54:00,90.5,42.6,29.87,NNE,23,4.6,4.6,19,0.00,,,0.00,WUHU216HW,2013-05-24 22:54:00,
2013-05-24 15:59:00,90.5,42.6,29.87,NNW,338,2.4,4.6,19,0.00,,,0.00,WUHU216HW,2013-05-24 22:59:00,
2013-05-24 16:04:00,90.5,42.6,29.87,NNW,338,4.4,4.4,19,0.00,,,0.00,WUHU216HW,2013-05-24 23:04:00,
2013-05-24 16:09:00,90.3,42.5,29.87,SE,135,0.0,4.4,19,0.00,,,0.00,WUHU216HW,2013-05-24 23:09:00,
2013-05-24 16:14:00,90.5,42.6,29.87,NW,315,0.0,0.0,19,0.00,,,0.00,WUHU216HW,2013-05-24 23:14:00,
2013-05-24 16:19:00,90.6,42.7,29.86,SSE,158,1.5,1.5,19,0.00,,,0.00,WUHU216HW,2013-05-24 23:19:00,
2013-05-24 16:24:00,90.8,42.9,29.86,NNW,338,0.0,4.4,19,0.00,,,0.00,WUHU216HW,2013-05-24 23:24:00,
2013-05-24 16:29:00,90.6,42.7,29.86,NNW,338,4.2,4.4,19,0.00,,,0.00,WUHU216HW,2013-05-24 23:29:00,
2013-05-24 16:34:00,90.3,42.5,29.86,North,0,0.6,4.2,19,0.00,,,0.00,WUHU216HW,2013-05-24 23:34:00,
2013-05-24 16:39:00,89.9,42.1,29.86,ENE,68,0.0,4.6,19,0.00,,,0.00,WUHU216HW,2013-05-24 23:39:00,
2013-05-24 16:44:00,89.4,41.7,29.86,NNW,338,0.0,6.4,19,0.00,,,0.00,WUHU216HW,2013-05-24 23:44:00,
2013-05-24 16:49:00,89.2,41.6,29.86,NNW,338,4.9,6.4,19,0.00,,,0.00,WUHU216HW,2013-05-24 23:49:00,
2013-05-24 16:54:00,88.5,41.0,29.86,NNW,338,4.9,6.7,19,0.00,,,0.00,WUHU216HW,2013-05-24 23:54:00,
2013-05-24 16:59:00,87.9,40.5,29.86,NNW,338,6.0,6.7,19,0.00,,,0.00,WUHU216HW,2013-05-24 23:59:00,
2013-05-24 17:04:00,87.4,40.1,29.86,North,0,0.0,6.0,19,0.00,,,0.00,WUHU216HW,2013-05-25 00:04:00,
2013-05-24 17:09:00,86.9,39.7,29.85,SSE,158,1.7,6.0,19,0.00,,,0.00,WUHU216HW,2013-05-25 00:09:00,
2013-05-24 17:14:00,86.3,39.2,29.85,NNW,338,2.6,5.5,19,0.00,,,0.00,WUHU216HW,2013-05-25 00:14:00,
2013-05-24 17:19:00,85.6,38.6,29.85,NNW,338,2.6,5.5,19,0.00,,,0.00,WUHU216HW,2013-05-25 00:19:00,
2013-05-24 17:24:00,84.3,37.5,29.85,ENE,68,2.4,6.7,19,0.00,,,0.00,WUHU216HW,2013-05-25 00:24:00,
2013-05-24 17:29:00,83.4,36.8,29.85,NNE,23,0.0,6.7,19,0.00,,,0.00,WUHU216HW,2013-05-25 00:29:00,
2013-05-24 17:34:00,83.3,36.7,29.85,NNE,23,0.0,2.4,19,0.00,,,0.00,WUHU216HW,2013-05-25 00:34:00,
2013-05-24 17:39:00,82.7,36.2,29.85,NNW,338,3.3,6.4,19,0.00,,,0.00,WUHU216HW,2013-05-25 00:39:00,
2013-05-24 17:44:00,82.2,35.8,29.85,NNW,338,2.4,6.4,19,0.00,,,0.00,WUHU216HW,2013-05-25 00:44:00,
2013-05-24 17:49:00,81.6,35.3,29.85,North,0,3.1,3.8,19,0.00,,,0.00,WUHU216HW,2013-05-25 00:49:00,
2013-05-24 17:54:00,81.1,34.9,29.85,North,0,2.4,7.1,19,0.00,,,0.00,WUHU216HW,2013-05-25 00:54:00,
2013-05-24 17:59:00,80.7,34.6,29.85,NNW,338,4.0,7.1,19,0.00,,,0.00,WUHU216HW,2013-05-25 00:59:00,
2013-05-24 18:04:00,80.4,34.3,29.85,NNW,338,5.5,5.5,19,0.00,,,0.00,WUHU216HW,2013-05-25 01:04:00,
2013-05-24 18:09:00,80.0,34.0,29.85,NNW,338,3.1,5.5,19,0.00,,,0.00,WUHU216HW,2013-05-25 01:09:00,
2013-05-24 18:14:00,79.5,33.6,29.85,NNW,338,3.1,4.0,19,0.00,,,0.00,WUHU216HW,2013-05-25 01:14:00,
2013-05-24 18:19:00,79.1,33.3,29.85,NNW,338,1.5,4.0,19,0.00,,,0.00,WUHU216HW,2013-05-25 01:19:00,
2013-05-24 18:24:00,78.9,33.1,29.85,NNW,338,2.0,6.0,19,0.00,,,0.00,WUHU216HW,2013-05-25 01:24:00,
2013-05-24 18:29:00,78.8,33.0,29.85,NW,315,4.4,6.0,19,0.00,,,0.00,WUHU216HW,2013-05-25 01:29:00,
2013-05-24 18:34:00,78.4,32.7,29.85,North,0,2.2,4.4,19,0.00,,,0.00,WUHU216HW,2013-05-25 01:34:00,
2013-05-24 18:39:00,78.2,32.5,29.85,NNW,338,4.6,5.8,19,0.00,,,0.00,WUHU216HW,2013-05-25 01:39:00,
2013-05-24 18:44:00,77.9,32.3,29.85,North,0,6.0,6.0,19,0.00,,,0.00,WUHU216HW,2013-05-25 01:44:00,
2013-05-24 18:49:00,77.7,32.1,29.85,NW,315,0.0,6.0,19,0.00,,,0.00,WUHU216HW,2013-05-25 01:49:00,
2013-05-24 18:54:00,77.5,32.0,29.85,NNW,338,6.4,6.4,19,0.00,,,0.00,WUHU216HW,2013-05-25 01:54:00,
2013-05-24 18:59:00,77.3,31.8,29.85,NNW,338,1.1,6.4,19,0.00,,,0.00,WUHU216HW,2013-05-25 01:59:00,
2013-05-24 19:04:00,76.6,31.2,29.85,North,0,4.9,7.6,19,0.00,,,0.00,WUHU216HW,2013-05-25 02:04:00,
2013-05-24 19:09:00,76.2,30.9,29.85,North,0,5.8,7.6,19,0.00,,,0.00,WUHU216HW,2013-05-25 02:09:00,
2013-05-24 19:14:00,76.2,30.9,29.85,North,0,2.2,5.8,19,0.00,,,0.00,WUHU216HW,2013-05-25 02:14:00,
2013-05-24 19:19:00,75.9,30.6,29.86,North,0,0.0,5.8,19,0.00,,,0.00,WUHU216HW,2013-05-25 02:19:00,
2013-05-24 19:24:00,75.7,30.5,29.85,NNW,338,4.2,4.2,19,0.00,,,0.00,WUHU216HW,2013-05-25 02:24:00,
2013-05-24 19:29:00,75.5,30.3,29.85,NNW,338,3.1,4.2,19,0.00,,,0.00,WUHU216HW,2013-05-25 02:29:00,
2013-05-24 19:34:00,75.2,30.1,29.85,North,0,0.0,4.2,19,0.00,,,0.00,WUHU216HW,2013-05-25 02:34:00,
2013-05-24 19:39:00,75.0,29.9,29.85,North,0,2.2,2.2,19,0.00,,,0.00,WUHU216HW,2013-05-25 02:39:00,
2013-05-24 19:44:00,74.6,29.6,29.86,North,0,0.0,2.2,19,0.00,,,0.00,WUHU216HW,2013-05-25 02:44:00,
2013-05-24 19:49:00,74.3,29.3,29.86,North,0,2.0,3.1,19,0.00,,,0.00,WUHU216HW,2013-05-25 02:49:00,
2013-05-24 19:54:00,74.1,29.2,29.86,North,0,0.0,6.9,19,0.00,,,0.00,WUHU216HW,2013-05-25 02:54:00,
2013-05-24 19:59:00,73.7,28.8,29.86,NNW,338,0.4,6.9,19,0.00,,,0.00,WUHU216HW,2013-05-25 02:59:00,
2013-05-24 20:04:00,73.2,28.4,29.86,NNW,338,0.6,1.5,19,0.00,,,0.00,WUHU216HW,2013-05-25 03:04:00,
2013-05-24 20:09:00,73.0,28.3,29.86,NNE,23,0.0,0.6,19,0.00,,,0.00,WUHU216HW,2013-05-25 03:09:00,
2013-05-24 20:14:00,72.8,28.1,29.86,NNW,338,0.0,0.6,19,0.00,,,0.00,WUHU216HW,2013-05-25 03:14:00,
2013-05-24 20:19:00,72.5,27.8,29.86,North,0,1.7,1.7,19,0.00,,,0.00,WUHU216HW,2013-05-25 03:19:00,
2013-05-24 20:24:00,72.3,27.7,29.86,NNW,338,0.0,1.7,19,0.00,,,0.00,WUHU216HW,2013-05-25 03:24:00,
2013-05-24 20:29:00,71.9,27.4,29.86,NNW,338,1.3,1.7,19,0.00,,,0.00,WUHU216HW,2013-05-25 03:29:00,
2013-05-24 20:34:00,71.4,26.9,29.86,NNW,338,0.0,1.5,19,0.00,,,0.00,WUHU216HW,2013-05-25 03:34:00,
2013-05-24 20:39:00,71.2,26.8,29.86,NNW,338,0.6,1.5,19,0.00,,,0.00,WUHU216HW,2013-05-25 03:39:00,
2013-05-24 20:44:00,70.7,26.4,29.86,NNE,23,1.7,1.7,19,0.00,,,0.00,WUHU216HW,2013-05-25 03:44:00,
2013-05-24 20:49:00,70.5,26.2,29.86,NNW,338,0.0,1.7,19,0.00,,,0.00,WUHU216HW,2013-05-25 03:49:00,
2013-05-24 20:54:00,70.1,25.9,29.86,NNW,338,0.0,0.0,19,0.00,,,0.00,WUHU216HW,2013-05-25 03:54:00,
2013-05-24 20:59:00,69.9,25.7,29.86,NNW,338,1.3,2.2,19,0.00,,,0.00,WUHU216HW,2013-05-25 03:59:00,
2013-05-24 21:05:00,69.4,25.3,29.87,NNW,338,0.0,2.2,19,0.00,,,0.00,WUHU216HW,2013-05-25 04:05:00,
2013-05-24 21:10:00,69.2,28.5,29.87,NNW,338,0.0,1.5,22,0.00,,,0.00,WUHU216HW,2013-05-25 04:10:00,
2013-05-24 21:15:00,68.7,28.2,29.87,NNW,338,0.0,0.0,22,0.00,,,0.00,WUHU216HW,2013-05-25 04:15:00,
2013-05-24 21:20:00,68.7,31.0,29.87,NNW,338,0.0,0.0,25,0.00,,,0.00,WUHU216HW,2013-05-25 04:20:00,
2013-05-24 21:25:00,68.1,30.6,29.87,NNW,338,0.0,0.0,25,0.00,,,0.00,WUHU216HW,2013-05-25 04:25:00,
2013-05-24 21:30:00,68.0,30.4,29.88,NNW,338,0.0,0.0,25,0.00,,,0.00,WUHU216HW,2013-05-25 04:30:00,
2013-05-24 21:35:00,67.4,30.9,29.88,NNW,338,0.0,0.0,26,0.00,,,0.00,WUHU216HW,2013-05-25 04:35:00,
2013-05-24 21:40:00,67.1,30.7,29.88,NNW,338,0.0,0.0,26,0.00,,,0.00,WUHU216HW,2013-05-25 04:40:00,
2013-05-24 21:45:00,66.5,30.3,29.88,NNW,338,0.0,0.0,26,0.00,,,0.00,WUHU216HW,2013-05-25 04:45:00,
2013-05-24 21:50:00,66.3,31.1,29.88,NNW,338,0.0,0.0,27,0.00,,,0.00,WUHU216HW,2013-05-25 04:50:00,
2013-05-24 21:55:00,65.6,31.4,29.89,NNW,338,0.0,0.0,28,0.00,,,0.00,WUHU216HW,2013-05-25 04:55:00,
2013-05-24 22:00:00,65.6,32.4,29.88,NNW,338,0.0,0.0,29,0.00,,,0.00,WUHU216HW,2013-05-25 05:00:00,
2013-05-24 22:05:00,65.1,32.0,29.88,NNW,338,0.0,0.0,29,0.00,,,0.00,WUHU216HW,2013-05-25 05:05:00,
2013-05-24 22:10:00,64.5,32.5,29.89,NNW,338,0.0,0.0,30,0.00,,,0.00,WUHU216HW,2013-05-25 05:10:00,
2013-05-24 22:15:00,64.5,32.5,29.88,NNW,338,0.0,0.0,30,0.00,,,0.00,WUHU216HW,2013-05-25 05:15:00,
2013-05-24 22:20:00,64.0,32.7,29.89,NNW,338,0.0,0.0,31,0.00,,,0.00,WUHU216HW,2013-05-25 05:20:00,
2013-05-24 22:25:00,63.6,32.4,29.89,NNW,338,0.0,0.0,31,0.00,,,0.00,WUHU216HW,2013-05-25 05:25:00,
2013-05-24 22:30:00,63.5,32.2,29.89,NNW,338,0.0,0.0,31,0.00,,,0.00,WUHU216HW,2013-05-25 05:30:00,
2013-05-24 22:35:00,63.3,32.1,29.89,NW,315,0.0,0.0,31,0.00,,,0.00,WUHU216HW,2013-05-25 05:35:00,
2013-05-24 22:40:00,62.9,32.5,29.89,NW,315,0.0,0.0,32,0.00,,,0.00,WUHU216HW,2013-05-25 05:40:00,
2013-05-24 22:45:00,62.7,32.3,29.90,NW,315,0.0,0.0,32,0.00,,,0.00,WUHU216HW,2013-05-25 05:45:00,
2013-05-24 22:50:00,62.7,32.3,29.90,NW,315,0.0,0.0,32,0.00,,,0.00,WUHU216HW,2013-05-25 05:50:00,
2013-05-24 22:55:00,62.0,31.6,29.90,NW,315,0.0,0.0,32,0.00,,,0.00,WUHU216HW,2013-05-25 05:55:00,
2013-05-24 23:00:00,62.0,32.4,29.90,NW,315,0.0,0.0,33,0.00,,,0.00,WUHU216HW,2013-05-25 06:00:00,
2013-05-24 23:05:00,61.7,32.0,29.90,NW,315,0.0,0.0,33,0.00,,,0.00,WUHU216HW,2013-05-25 06:05:00,
2013-05-24 23:10:00,61.5,32.6,29.90,NW,315,0.0,0.0,34,0.00,,,0.00,WUHU216HW,2013-05-25 06:10:00,
2013-05-24 23:15:00,61.3,32.4,29.90,NW,315,0.0,0.0,34,0.00,,,0.00,WUHU216HW,2013-05-25 06:15:00,
2013-05-24 23:20:00,61.1,32.3,29.90,NW,315,0.0,0.0,34,0.00,,,0.00,WUHU216HW,2013-05-25 06:20:00,
2013-05-24 23:25:00,60.9,32.1,29.90,NW,315,0.0,0.0,34,0.00,,,0.00,WUHU216HW,2013-05-25 06:25:00,
2013-05-24 23:30:00,60.8,32.0,29.90,NW,315,0.0,0.0,34,0.00,,,0.00,WUHU216HW,2013-05-25 06:30:00,
2013-05-24 23:35:00,60.4,32.4,29.90,NW,315,0.0,0.0,35,0.00,,,0.00,WUHU216HW,2013-05-25 06:35:00,
2013-05-24 23:40:00,60.4,32.4,29.89,NW,315,0.0,0.0,35,0.00,,,0.00,WUHU216HW,2013-05-25 06:40:00,
2013-05-24 23:45:00,60.2,32.9,29.90,NW,315,0.0,0.0,36,0.00,,,0.00,WUHU216HW,2013-05-25 06:45:00,
2013-05-24 23:50:00,59.9,32.6,29.89,NW,315,0.0,0.0,36,0.00,,,0.00,WUHU216HW,2013-05-25 06:50:00,
2013-05-24 23:55:00,59.3,32.9,29.90,NW,315,0.0,0.0,37,0.00,,,0.00,WUHU216HW,2013-05-25 06:55:00,